www.pogodaiklimat.ru

Погода и климат >> Архив погоды >> Россия >> Дагестан >> Махачкала


АРХИВ ПОГОДЫ в Махачкале

Время (UTC), дата Ветер
(напр.,м/с)
 
Видим.   Явления Облачность Т
(С)
Тd
(С)
f
(%)
Тe
(С)
Тes
(С)
Комфортность P
(гПа)
Po
(гПа)
Тmin
(С)
Tmax
(С)
R
(мм)
R24
(мм)
S
(см)
03 19.08 ЮВ 2 20 км 8/0
[Ac cast Ci fib]
+22.1 +17.9 77 +27 +27 душно 1012.7 1014.8 +20.7
06 19.08 В 3 20 км 3/0
[Ci fib]
+24.7 +19.0 71 +30 +37 очень
душно
1013.5 1015.5
09 19.08 В 3 20 км 3/0
[Ac trans Ci fib]
+26.9 +21.2 71 +34 +45 очень
душно
1013.6 1015.7
12 19.08 В 5
{10}
10 км 3/0
[Ac trans Ci fib]
+26.0 +21.3 75 +33 +37 очень
душно
1013.2 1015.3
15 19.08 В 5
{10}
20 км 4/3 600 м
[Cb calv Ac trans Ci fib]
+24.0 +20.1 79 +30 +30 очень
душно
1013.5 1015.6 +27.2
18 19.08 В 2
{10}
20 км 4/0
[Ac trans Ci fib]
+23.7 +18.8 74 +28 +28 душно 1014.7 1016.8
21 19.08 В 2 20 км 4/0
[Ac trans Ci fib]
+22.0 +19.0 83 +27 +27 душно 1015.2 1017.3
00 20.08 ЮВ 3 20 км ясно +21.8 +19.5 87 +27 +27 душно 1015.8 1017.9
03 20.08 В 2 20 км ясно +22.2 +18.3 79 +27 +28 душно 1015.5 1017.6 +21.4
06 20.08 В 3 20 км ясно +26.2 +19.7 67 +32 +40 очень
душно
1016.0 1018.1
09 20.08 В 5 10 км ясно +26.4 +20.8 71 +33 +41 очень
душно
1015.6 1017.7
12 20.08 В 4 10 км ясно +26.0 +20.6 72 +32 +38 очень
душно
1014.8 1016.8
15 20.08 В 3 10 км ясно +24.1 +20.6 81 +30 +30 очень
душно
1014.5 1016.6 +26.6
18 20.08 ЮВ 4 10 км ясно +23.0 +20.6 86 +30 +30 очень
душно
1015.3 1017.4
21 20.08 В 1 20 км ясно +22.2 +20.0 87 +28 +28 душно 1014.6 1016.7
00 21.08 ЮВ 4 20 км ясно +22.7 +20.5 87 +29 +29 очень
душно
1014.2 1016.3
03 21.08 ЮВ 3 20 км ясно +23.5 +18.6 74 +28 +29 душно 1014.7 1016.8 +22.2
06 21.08 В 2 20 км ясно +26.7 +18.9 62 +32 +41 очень
душно
1014.6 1016.7
09 21.08 В 5 20 км ясно +26.5 +20.7 70 +33 +41 очень
душно
1013.3 1015.4
12 21.08 В 4 20 км ясно +27.0 +19.5 64 +33 +38 очень
душно
1012.3 1014.4
15 21.08 В 4 20 км ясно +24.8 +21.1 80 +31 +31 очень
душно
1011.5 1013.6 +28.1
18 21.08 В 3 20 км ясно +23.5 +21.0 86 +30 +30 очень
душно
1011.5 1013.6
21 21.08 В 2 20 км ясно +22.9 +21.1 90 +30 +30 очень
душно
1011.2 1013.3
00 22.08 ЮВ 4 500 м туман ?/? +22.7 +21.4 92 +30 +30 очень
душно
1011.0 1013.1
03 22.08 В 2 10 км {туман} ясно +22.5 +21.2 92 +30 +30 очень
душно
1011.3 1013.4 +22.4
06 22.08 В 4 20 км {туман} ясно +25.4 +21.4 79 +32 +39 очень
душно
1011.0 1013.1
09 22.08 В 4 20 км ясно +26.5 +22.0 76 +34 +45 очень
душно
1010.3 1012.4
12 22.08 В 2 20 км ясно +28.0 +21.6 68 +36 +44 очень
душно
1010.4 1012.4
15 22.08 В 3 20 км ясно +25.9 +19.2 67 +31 +31 очень
душно
1010.1 1012.1 +28.5
18 22.08 В 1 10 км ясно +24.4 +20.8 80 +30 +30 очень
душно
1011.2 1013.3
21 22.08 штиль 0 10 км ясно +21.3 +19.0 87 +26 +26 душно 1011.3 1013.4
00 23.08 ЮВ 1 10 км ясно +21.7 +19.8 89 +27 +27 душно 1010.7 1012.8
03 23.08 ЮВ 2 20 км ясно +22.9 +18.0 74 +28 +29 душно 1010.6 1012.7 +18.5
06 23.08 В 4 20 км 3/0
[Ci fib]
+26.3 +20.5 70 +33 +39 очень
душно
1010.9 1013.0
09 23.08 В 3 10 км 3/0
[Ac trans Ci fib]
+28.6 +23.1 72 +38 +50 очень
душно
1011.3 1013.3
12 23.08 В 3 10 км 4/3 600 м
[Cu hum Ac trans Ci fib]
+28.3 +22.2 70 +37 +41 очень
душно
1010.2 1012.2
15 23.08 В 2 20 км 6/3 600 м
[Cb calv Ac trans Ci fib]
+26.8 +22.3 76 +35 +35 очень
душно
1009.6 1011.7 +29.6
18 23.08 В 1 10 км 6/0
[Ac trans Ci fib]
+25.5 +22.9 86 +34 +34 очень
душно
1010.9 1013.0
21 23.08 штиль 0 10 км 4/0
[Ci fib]
+22.5 +20.7 90 +29 +29 очень
душно
1010.6 1012.7
00 24.08 штиль 0 10 км 6/0
[Ac trans Ci fib]
+20.6 +19.0 91 +24 +24 комфорт 1010.8 1012.9
03 24.08 ЮВ 2 20 км 9/6 600 м
[Cb calv Ac trans Ci fib]
+24.7 +21.8 84 +32 +32 очень
душно
1011.9 1013.9 +19.2
06 24.08 В 2 10 км 8/0
[Ac cast Ci fib]
+28.7 +19.8 59 +35 +41 очень
душно
1012.1 1014.1
09 24.08 ЮВ 3 10 км 9/3 600 м
[Cu med, cong Ac cast Ci fib]
+28.0 +22.3 71 +37 +42 очень
душно
1011.9 1014.0 30
12 24.08 В 3 10 км 9/4 600 м
[Cu med, cong Ac cast Ci fib]
+28.4 +22.7 71 +38 +40 очень
душно
1011.2 1013.2
15 24.08 В 4 10 км 9/5 600 м
[Cb calv Ac As Ci fib]
+26.7 +22.8 79 +35 +35 очень
душно
1011.1 1013.1 +30.6
18 24.08 ЮВ 4 10 км 3/0
[Ac cast Ci fib]
+26.5 +22.0 76 +34 +34 очень
душно
1011.6 1013.7
21 24.08 В 2 20 км 3/0
[Ac cast Ci fib]
+25.8 +21.0 75 +32 +32 очень
душно
1011.9 1013.9
00 25.08 В 2 20 км 1/0
[]
+25.3 +20.2 73 +31 +31 очень
душно
1012.4 1014.5
03 25.08 З 1 20 км 5/0
[Ci fib]
+24.8 +17.8 65 +29 +29 душно 1014.4 1016.4 +24.3
06 25.08 В 1 20 км 9/0
[Ac cast Ci fib]
+29.5 +17.6 49 +34 +39 очень
душно
1014.6 1016.7
09 25.08 В 2 10 км 9/0
[Ac cast Ci fib]
+30.1 +19.0 51 +35 +45 очень
душно
1013.7 1015.7
12 25.08 В 3 10 км 9/4 600 м
[Sc diur, vesp Ac cast Ci fib]
+27.1 +22.2 75 +35 +38 очень
душно
1014.0 1016.1
15 25.08 В 2 10 км 9/4 600 м
[Sc diur, vesp Ac cast Ci fib]
+25.9 +21.9 79 +33 +34 очень
душно
1014.2 1016.3 +30.9
18 25.08 З 3 10 км 10/6 600 м
[Sc diur, vesp Ac As]
+25.7 +18.1 63 +30 +30 душно 1015.8 1017.9
21 25.08 СЗ 2 10 км 10/4 600 м
[Sc diur, vesp Ac As]
+23.4 +16.1 64 +28 +28 душно 1015.3 1017.4
00 26.08 З 3 10 км 10/3 600 м
[Cb cap Ac inh Cs]
+22.6 +17.2 72 +27 +27 душно 1016.4 1018.5

 

Местоположение метеостанции Махачкала (Дагестан, Россия): широта 43.02 долгота 47.48 высота над уровнем моря -19 м.

В архиве по умолчанию представлена погода в Махачкале за последнюю неделю. Архивные данные за месяц целиком и за предыдущие месяцы, начиная с января 2011 года, Вы можете получить, выбрав интересующий диапазон дат из раскрывающегося списка и нажав кнопку "Ввод!".


*Определитесь, кто Вы:
робот инопланетянин человек

Внимание! Время в таблицах - всемирное. Для получения местного времени необходимо прибавить поправку, которая равна 3 ч.

Смотрите также архив погоды в соседних городах и на ближайших метеорологических станциях:

Погода в Буйнакске (Дагестан, Россия) (37 км)
Погода в Сергокале (Дагестан, Россия) (65 км)
Погода в Изберге (Дагестан, Россия) (65 км)
Погода в Куппе (Дагестан, Россия) (73 км)
Погода в Хасавюрте (Дагестан, Россия) (77 км)
Погода в Гунибе (Дагестан, Россия) (81 км)
Погода в Хунзахе (Дагестан, Россия) (81 км)
Погода в Бабаюрте (Дагестан, Россия) (86 км)
Погода в Кумухе (Дагестан, Россия) (104 км)
Погода в Шелковской (Чечня, Россия) (106 км)

Пояснения к столбцам:

Ветер - указаны скорость ветра в м/с - средняя за 10 мин, порывы в срок и между сроками (в фигурных скобках) и направление, откуда дует ветер: С - северный, СВ - северо-восточный, В - восточный, ЮВ - юго-восточный, Ю - южный, ЮЗ - юго-западный, З - западный, СЗ - северо-западный.
Видимость - горизонтальная дальность видимости в метрах или километрах. При видимости от 1 до 10 км при отсутствии осадков обычно наблюдается дымка, при ухудшении видимости до 1 км и менее - туман. В сухую погоду видимость может ухудшаться дымом, пылью или мглою.
Явления - указаны атмосферные явления, наблюдавшиеся в срок или в последний час перед сроком; фигурными скобками обозначены явления, наблюдавшиеся между сроками (за 1-3 часа до срока); квадратными скобками обозначены град или гололедные отложения с указанием их диаметра в мм.
Облачность - указаны через наклонную черту общая и нижняя облачность в баллах и высота нижней границы облаков в метрах; квадратными скобками обозначены формы облаков: Ci - перистые, Cs - перисто-слоистые, Cc - перисто-кучевые, Ac - высококучевые, As - высокослоистые, Sc - слоисто-кучевые, Ns - слоисто-дождевые, Cu - кучевые, Cb - кучево-дождевые. Подробнее классификацию облаков см. в Атласе облаков (PDF).
T - Температура воздуха - температура, измеренная на высоте 2 м над землей.
Td - Температура точки росы - температура, при понижении до которой содержащийся в воздухе водяной пар достигнет насыщения.
f - Относительная влажность воздуха - влажноcть воздуха, измеренная на высоте 2 м над землей.
Te - Эффективная температура - температура, которую ощущает одетый по сезону человек в тени. Характеристика душности погоды. При расчете учитывается влияние влажности воздуха и скорости ветра на теплоощущения человека.
Tes - Эффективная температура на солнце - температура, которую ощущает человек, с поправкой на солнечный нагрев. Характеристика знойности погоды. Зависит от высоты солнца над горизонтом, облачности и скорости ветра. Ночью, в пасмурную погоду, а также при ветре 12 м/с и более поправка равна нулю.
P - Атмосферное давление - приведенное к уровню моря атмосферное давление.
Po - Атмосферное давление - измеренное на уровне метеостанции атмосферное давление.
Tmin - Минимальная температура - минимум температуры воздуха на высоте 2 м над землей.
Tmax - Максимальная температура - максимум температуры воздуха на высоте 2 м над землей.
R - Количество осадков - Количество выпавших осадков за период времени, мм. При наведении курсора мыши на число - период времени, за который выпало указанное количество осадков.
R24 - Количество осадков - Количество выпавших осадков за 24 часа, мм.
S - Снежный покров - Высота снежного покрова, см. При наведении курсора мыши на число - состояние снежного покрова и степень покрытия местности в баллах.